Regional Weather Roundup
Issued by NWS

Home | Current Version | Previous Version | Text Only | Print | Product List | Glossary On
Versions: 1 2 3 4 5 6 7 8 9 10 11 12 13 14 15 16 17 18 19 20 21 22 23 24 25 26 27 28 29 30 31 32 33 34 35 36 37 38 39 40 41 42 43 44 45 46 47 48 49 50
000
ASUS44 KFWD 010401
RWRTX
NORTH TEXAS HOURLY WEATHER ROUNDUP
NATIONAL WEATHER SERVICE FORT WORTH TX
ISSUED BY NATIONAL WEATHER SERVICE TULSA OK
1100 PM CDT TUE SEP 30 2014

NOTE: "FAIR" INDICATES FEW OR NO CLOUDS BELOW 12,000 FEET WITH NO
SIGNIFICANT WEATHER AND/OR OBSTRUCTIONS TO VISIBILITY.

TXZ118-119-010500-
DALLAS/FORT WORTH METROPLEX

CITY           SKY/WX    TMP DP  RH WIND       PRES   REMARKS
DFW AIRPORT    CLEAR     82  67  60 SE15G21   29.76F
DALLAS LOVE    CLEAR     82  68  62 S13       29.77S
FTW MEACHAM    CLEAR     82  65  56 SE14      29.76R
DAL-EXECUTIVE  CLEAR     81  68  64 SE10      29.77F
FTW-ALLIANCE   CLEAR     81  65  58 S13       29.76R
FTW-NAS-JRB    CLEAR     83  60  45 SE12      29.81R
FTW-SPINKS     CLEAR     77  63  63 SE7       29.79S
ARLINGTON      CLEAR     80  66  62 SE9       29.77F
GRAND PRAIRIE  CLEAR     81  66  61 SE7       29.79S
ADDISON        CLEAR     82  66  59 S16       29.79S
MESQUITE       CLEAR     79  66  65 SE8       29.79S
$$

TXZ091>094-102>105-117-120-121-131>134-010500-
NORTH CENTRAL TEXAS

CITY           SKY/WX    TMP DP  RH WIND       PRES   REMARKS
SHRMAN/DENISON CLEAR     75  67  74 E8        29.79S
GAINESVILLE    CLEAR     76  65  67 SE6       29.80R
BRIDGEPORT     CLEAR     78  56  46 S5        29.78S
DECATUR        CLEAR     78  60  55 SE6       29.78S
DENTON         CLEAR     81  65  58 SE13      29.76S
MCKINNEY       CLEAR     78  66  66 SE8       29.78S
GREENVILLE     CLEAR     75  64  69 SE6       29.80S
TERRELL        CLEAR     80  68  66 SE9       29.79F
WAXAHACHIE     CLEAR     78  68  73 SE7       29.80S
CLEBURNE       CLEAR     79  66  65 SE9       29.80S
GRANBURY       CLEAR     80  61  52 SE7       29.78S
$$

TXZ083>090-098>101-113>116-127>130-139>142-154-155-010500-
WESTERN NORTH TEXAS

CITY           SKY/WX    TMP DP  RH WIND       PRES   REMARKS
WICHITA FALLS  NOT AVBL
WF-KICKAPOO    CLEAR     78  53  42 SE12      29.75F
ABILENE        NOT AVBL
MINERAL WELLS  CLEAR     76  57  51 SE7       29.76S
STEPHENVILLE   CLEAR     76  60  56 S7        29.82S
COMANCHE       CLEAR     77  60  54 S9        29.80S
COLEMAN        CLEAR     77  59  53 S7        29.81R
BRADY          CLEAR     75  61  60 SE8       29.81S
$$

TXZ143>147-156>162-174-175-010500-
CENTRAL TEXAS

CITY           SKY/WX    TMP DP  RH WIND       PRES   REMARKS
WACO           CLEAR     79  68  69 S8        29.79R
WACO-TSTC      CLEAR     75  66  73 SE3       29.79
WACO-MCGREGOR  CLEAR     77  63  61 S9        29.80F
CORSICANA      CLEAR     78  69  73 SE8       29.81R
HEARNE         CLEAR     77  71  83 SE6       29.81R
TEMPLE         CLEAR     75  64  69 S8        29.79F
KILLEEN GRAY   CLEAR     75  66  73 SE7       29.80F
KILLEEN-SKYLRK CLEAR     77  64  65 SE7       29.80F
HAMILTON       CLEAR     76  62  61 S9G17     29.81S
LAMPASAS       CLEAR     76  67  73 SE5       29.80F
$$

TXZ095>097-106>112-122>126-135>138-148>153-164>167-010500-
EAST TEXAS

CITY           SKY/WX    TMP DP  RH WIND       PRES   REMARKS
PARIS          CLEAR     73  61  64 E9        29.82S
MOUNT PLEASANT PTCLDY    74  67  77 CALM      29.82S
MINEOLA        CLEAR     75  70  83 SE3       29.81S
TYLER          CLEAR     78  69  73 S6        29.81S
LONGVIEW       MOCLDY    78  68  71 S8        29.81S
PALESTINE      CLEAR     78  72  81 SE6       29.82S
HENDERSON      CLOUDY    75  69  79 CALM      29.83S
NACOGDOCHES    CLEAR     75  70  83 SE5       29.83S
LUFKIN         CLEAR     78  72  81 SE3       29.82S
$$

SUPPLEMENTAL OBSERVATIONS (CENTRAL)

CITY           SKY/WX    TMP DP  RH WIND       PRES   REMARKS
$$

SUPPLEMENTAL OBSERVATIONS (WEST)

CITY           SKY/WX    TMP DP  RH WIND       PRES   REMARKS
$$

SUPPLEMENTAL OBSERVATIONS (EAST)

CITY           SKY/WX    TMP DP  RH WIND       PRES   REMARKS
$$

SUPPLEMENTAL OBSERVATIONS ARE A COLLECTION OF AUTOMATED INSTRUMENTS
THAT ARE MAINTAINED BY A VARIETY OF FEDERAL AND STATE AGENCIES.
CERTAIN ELEMENTS...SUCH AS HUMIDITY VALUES AND SUSTAINED WIND
SPEEDS...MAY BE ESTIMATED.



USA.gov is the U.S. government's official web portal to all federal, state and local government web resources and services.